Location: Luz Observatory
(34.5000°N, 117.2833°W)
Time: 04:48:26
(UTC-07:00)

HST - Visible Passes

Search period start: 30 September 2014 00:00
Search period end: 10 October 2014 00:00
Orbit: 547 x 551 km, 28.5° (Epoch: 28 September)

Date Brightness Start Highest point End Pass type
(mag) Time Alt. Az. Time Alt. Az. Time Alt. Az.
05 Oct 3.4 04:42:15 12° SSE 04:42:15 12° SSE 04:43:37 10° SE visible
05 Oct 2.4 06:19:28 10° SW 06:23:01 27° SSE 06:26:35 10° ESE visible
06 Oct 3.3 04:35:45 14° SE 04:35:45 14° SE 04:37:18 10° SE visible
06 Oct 2.2 06:12:10 10° SW 06:15:51 30° S 06:19:32 10° ESE visible
07 Oct 3.3 04:29:12 15° SE 04:29:12 15° SE 04:30:36 10° ESE visible
07 Oct 2.0 06:04:55 10° WSW 06:08:41 33° S 06:12:27 10° ESE visible
08 Oct 3.4 04:22:36 15° SE 04:22:36 15° SE 04:23:44 10° ESE visible
08 Oct 1.9 05:58:10 13° WSW 06:01:31 35° S 06:05:20 10° ESE visible
09 Oct 3.6 04:15:59 14° ESE 04:15:59 14° ESE 04:16:46 10° ESE visible
09 Oct 1.8 05:51:32 16° WSW 05:54:21 36° S 05:58:11 10° ESE visible
